Hourly Weather Roundup
Issued by NWS Central Illinois

Home | Current Version | Previous Version | Text Only | Print | Product List | Glossary On
Versions: 1 2 3 4 5 6 7 8 9 10 11 12 13 14 15 16 17 18 19 20 21 22 23 24 25 26 27 28 29 30 31 32 33 34 35 36 37 38 39 40 41 42 43 44 45 46 47 48 49 50
000
NZUS43 KILX 302210
HWRILX

AREA WEATHER ROUNDUP
NATIONAL WEATHER SERVICE, LINCOLN IL
500 PM CDT SAT APR 30 2016


CITY           SKY/WX    TMP DP  RH WIND       PRES   REMARKS
BLOOMINGTON    LGT RAIN  58  58 100 SE10      29.79S VSB 1
CHAMPAIGN      CLOUDY    60  60 100 SE13      29.79F FOG
DANVILLE       CLOUDY    56  55  95 SE7       29.80S
DECATUR        CLOUDY    63  60  90 S9        29.78S
EFFINGHAM      CLOUDY    67  66  94 SE8       29.80R
FLORA          CLOUDY    70  65  82 S7        29.80R
GALESBURG      DRIZZLE   53  52  97 E12G17    29.78S
JACKSONVILLE   CLOUDY    69  62  78 S6        29.74S
LACON          LGT RAIN  50  49  96 E13G22    29.81S
LAWRENCEVILLE  CLOUDY    67  64  90 S15       29.82R
LITCHFIELD     CLOUDY    69  63  80 S12       29.75S
$$


CITY           SKY/WX    TMP DP  RH WIND       PRES   REMARKS
LINCOLN        CLOUDY    64  63  97 S8        29.77R
MACOMB         CLOUDY    58  58  99 E8        29.78S FOG
MATTOON        CLOUDY    63  60  90 S6        29.78F
MT CARMEL AP   NOT AVBL
OLNEY-NOBLE AP CLOUDY    68  63  83 S12       29.80S
PARIS          CLOUDY    62  61  96 SE8       29.81F
PEORIA         LGT RAIN  56  54  93 E13       29.78S FOG
PONTIAC        LGT RAIN  52  52  99 E16       29.83S
RANTOUL        DRIZZLE   58  57  97 SE10      29.80F
ROBINSON       CLOUDY    66  63  90 S9        29.82S
SPRINGFIELD    CLOUDY    68  65  90 S12       29.75S
TAYLORVILLE    CLOUDY    64  63  94 S9        29.76F
$$

...REGIONAL REPORTS...


CITY           SKY/WX    TMP DP  RH WIND       PRES   REMARKS
CHICAGO O`HARE LGT RAIN  44  42  93 NE20      29.91F FOG
KANKAKEE       DRIZZLE   49  48  97 E14       29.85S
MOLINE         LGT RAIN  49  45  86 E20       29.83R FOG
MOUNT STERLING PTSUNNY   66  62  88 SE5       29.74R
MOUNT VERNON   CLOUDY    72  61  68 S9        29.80R
PITTSFIELD     MOSUNNY   69  64  83 SE3       29.73S
QUINCY         LGT RAIN  68  61  78 NE5       29.71S
ROCKFORD       RAIN      45  42  89 NE17G26   29.94R FOG
$$


CITY           SKY/WX    TMP DP  RH WIND       PRES   REMARKS
BURLINGTON     CLOUDY    57  57 100 NE7       29.76R FOG
CEDAR RAPIDS   CLOUDY    48  46  93 E21G29    29.84R FOG
DES MOINES     LGT RAIN  51  47  86 E18       29.81R FOG
KIRKSVILLE     CLOUDY    67  59  75 N8        29.74R
OTTUMWA        CLOUDY    51  49  92 NE15      29.78R
ST LOUIS       PTSUNNY   76  61  59 S8        29.74S
$$


CITY           SKY/WX    TMP DP  RH WIND       PRES   REMARKS
TERRE HAUTE    CLOUDY    64  60  87 SE12      29.82R
EVANSVILLE     CLOUDY    68  63  84 SE7       29.83S
INDIANAPOLIS   LGT RAIN  59  57  93 SE15      29.82F
LAFAYETTE      LGT RAIN  54  52  93 E10       29.84F
MADISON        LGT RAIN  45  40  82 NE12      30.00R
MILWAUKEE      LGT RAIN  42  39  89 NE16      30.00F WCI  34
$$





USA.gov is the U.S. government's official web portal to all federal, state and local government web resources and services.